Location: Colonia Mina de C?rbuni
(46.1667°N, 22.7167°E)
Time: 14:51:22
(UTC+00:00)

Courier 1B - Pass Details

Date: 28 April 2024
Orbit: 962 x 1208 km, 28.3° (Epoch: 23 May)

Event Time Altitude Azimuth Distance (km) Brightness Sun altitude
Rises 22:24:21 0° 236° (WSW) 4,105 - -29.3°
Reaches altitude 10° 22:28:06 10° 221° (SW) 3,134 - -29.3°
Maximum altitude 22:33:22 20° 178° (S) 2,452 - -29.3°
Drops below altitude 10° 22:38:32 10° 135° (SE) 3,067 - -29.2°
Sets 22:42:09 0° 119° (ESE) 3,990 - -29.2°
